timestamp,surface_pressure_avg,surface_temp_avg,battery_voltage,lat,long
2021-02-19 00:09:01+00:00,254.4581,1.59,12.81,47.84626,-54.09684
2021-02-19 00:19:01+00:00,253.6697,1.5,12.65,47.84626,-54.09684
2021-02-19 00:29:01+00:00,255.0864,1.4,12.65,47.84626,-54.09684
2021-02-19 00:39:01+00:00,259.3281,1.3,12.65,47.84626,-54.09684
2021-02-19 00:49:01+00:00,266.4297,1.2,12.65,47.84626,-54.09684
2021-02-19 00:59:01+00:00,269.2997,1.17,12.65,47.84626,-54.09684
2021-02-19 01:09:01+00:00,274.2681,1.1,12.65,47.84626,-54.09684
2021-02-19 01:19:01+00:00,275.7014,0.8,12.57,47.84626,-54.09684
2021-02-19 01:29:01+00:00,284.1664,1.17,12.57,47.84626,-54.09684
2021-02-19 01:39:01+00:00,289.0697,1.18,12.57,47.84626,-54.09684
2021-02-19 01:49:01+00:00,292.3831,1.1,12.57,47.84626,-54.09684
2021-02-19 01:59:01+00:00,292.5663,1.1,12.57,47.84626,-54.09684
2021-02-19 02:09:01+00:00,298.4913,1.15,12.57,47.84626,-54.09684
2021-02-19 02:19:01+00:00,303.2664,1.17,12.57,47.84626,-54.09684
2021-02-19 02:29:01+00:00,309.0447,1.1,12.57,47.84626,-54.09684
2021-02-19 02:39:01+00:00,312.3264,1.16,12.57,47.84626,-54.09684
2021-02-19 02:49:01+00:00,320.3513,1.21,12.57,47.84626,-54.09684
2021-02-19 02:59:01+00:00,323.2613,1.34,12.57,47.84626,-54.09684
2021-02-19 03:09:01+00:00,322.1631,1.5,12.57,47.84626,-54.09684
2021-02-19 03:19:01+00:00,326.418,1.5,12.57,47.84626,-54.09684
2021-02-19 03:29:01+00:00,327.4696,1.5,12.57,47.84626,-54.09684
2021-02-19 03:39:01+00:00,326.9046,1.49,12.57,47.84626,-54.09684
2021-02-19 03:49:01+00:00,334.7112,1.48,12.57,47.84626,-54.09684
2021-02-19 03:59:01+00:00,335.6113,1.47,12.57,47.84626,-54.09684
2021-02-19 04:09:01+00:00,327.028,1.4,12.57,47.84626,-54.09684
2021-02-19 04:19:01+00:00,328.6497,1.35,12.57,47.84626,-54.09684
2021-02-19 04:29:01+00:00,340.1646,1.36,12.57,47.84626,-54.09684
2021-02-19 04:39:01+00:00,334.9380000000001,1.3,12.57,47.84626,-54.09684
2021-02-19 04:49:01+00:00,328.17800000000005,1.3,12.57,47.84626,-54.09684
2021-02-19 04:59:01+00:00,334.608,1.3,12.57,47.84626,-54.09684
2021-02-19 05:09:01+00:00,334.5464,1.3,12.57,47.84626,-54.09684
2021-02-19 05:19:01+00:00,322.9714,1.3,12.49,47.84626,-54.09684
2021-02-19 05:29:01+00:00,320.2913,1.3,12.49,47.84626,-54.09684
2021-02-19 05:39:01+00:00,328.103,1.32,12.49,47.84626,-54.09684
2021-02-19 05:49:01+00:00,330.2263,1.39,12.49,47.84626,-54.09684
2021-02-19 05:59:01+00:00,325.2513,1.4,12.49,47.84626,-54.09684
2021-02-19 06:09:01+00:00,322.7096,1.4,12.49,47.84626,-54.09684
2021-02-19 06:19:01+00:00,321.5847,1.4,12.49,47.84626,-54.09684
2021-02-19 06:29:01+00:00,316.4996,1.3,12.49,47.84626,-54.09684
2021-02-19 06:39:01+00:00,311.4446,1.1,12.49,47.84626,-54.09684
2021-02-19 06:49:01+00:00,312.7963,1.0,12.49,47.84626,-54.09684
2021-02-19 06:59:01+00:00,306.4796,0.9,12.49,47.84626,-54.09684
2021-02-19 07:09:01+00:00,303.8096,0.89,12.49,47.84626,-54.09684
2021-02-19 07:19:01+00:00,302.5731,0.89,12.49,47.84626,-54.09684
2021-02-19 07:29:01+00:00,301.5729,1.0,12.49,47.84626,-54.09684
2021-02-19 07:39:01+00:00,288.913,1.18,12.49,47.84626,-54.09684
2021-02-19 07:49:01+00:00,288.5431,1.22,12.49,47.84626,-54.09684
2021-02-19 07:59:01+00:00,290.2064,1.3,12.49,47.84626,-54.09684
2021-02-19 08:09:01+00:00,281.4164,1.2,12.49,47.84626,-54.09684
2021-02-19 08:19:01+00:00,270.4314,1.1,12.41,47.84626,-54.09684
2021-02-19 08:29:01+00:00,270.3347,1.06,12.41,47.84626,-54.09684
2021-02-19 08:39:01+00:00,265.4497,1.1,12.41,47.84626,-54.09684
2021-02-19 08:49:01+00:00,251.8364,1.0,12.41,47.84626,-54.09684
2021-02-19 08:59:01+00:00,242.4315,0.99,12.41,47.84626,-54.09684
2021-02-19 09:09:01+00:00,244.3814,1.0,12.41,47.84626,-54.09684
2021-02-19 09:19:01+00:00,240.8848,1.05,12.41,47.84626,-54.09684
2021-02-19 09:29:01+00:00,231.4965,1.1,12.41,47.84626,-54.09684
2021-02-19 09:39:01+00:00,225.4497,1.0,12.41,47.84626,-54.09684
2021-02-19 09:49:01+00:00,226.5015,0.9,12.41,47.84626,-54.09684
2021-02-19 09:59:01+00:00,223.1414,0.6,12.41,47.84626,-54.09684
2021-02-19 10:09:01+00:00,217.8447,0.5,12.41,47.84626,-54.09684
2021-02-19 10:19:01+00:00,218.3881,0.49,12.41,47.84626,-54.09684
2021-02-19 10:29:01+00:00,218.2964,0.5,12.41,47.84626,-54.09684
2021-02-19 10:39:01+00:00,210.2531,0.5,12.41,47.84626,-54.09684
2021-02-19 10:49:01+00:00,211.4414,0.44,12.41,47.84626,-54.09684
2021-02-19 10:59:01+00:00,223.2164,0.5,12.41,47.84626,-54.09684
2021-02-19 11:09:01+00:00,222.2198,0.59,12.41,47.84626,-54.09684
2021-02-19 11:19:01+00:00,217.6948,0.6,13.84,47.84626,-54.09684
2021-02-19 11:29:01+00:00,223.7214,0.66,13.84,47.84626,-54.09684
2021-02-19 11:39:01+00:00,229.483,0.7,13.84,47.84626,-54.09684
2021-02-19 11:49:01+00:00,226.2131,0.77,13.84,47.84626,-54.09684
2021-02-19 11:59:01+00:00,226.3298,0.77,13.84,47.84626,-54.09684
2021-02-19 12:09:01+00:00,230.8031,0.79,13.84,47.84626,-54.09684
2021-02-19 12:19:01+00:00,230.6897,0.8,14.88,47.84626,-54.09684
2021-02-19 12:29:01+00:00,227.7848,0.73,14.88,47.84626,-54.09684
2021-02-19 12:39:01+00:00,231.1531,0.72,14.88,47.84626,-54.09684
2021-02-19 12:49:01+00:00,238.7331,0.76,14.88,47.84626,-54.09684
2021-02-19 12:59:01+00:00,243.2697,0.79,14.88,47.84626,-54.09684
2021-02-19 13:09:01+00:00,243.5697,0.8,14.88,47.84626,-54.09684
2021-02-19 13:19:01+00:00,245.3781,0.8,14.48,47.84626,-54.09684
2021-02-19 13:29:01+00:00,247.9731,0.8,14.48,47.84626,-54.09684
2021-02-19 13:39:01+00:00,249.2147,0.87,14.48,47.84626,-54.09684
2021-02-19 13:49:01+00:00,254.7565,0.9,14.48,47.84626,-54.09684
2021-02-19 13:59:01+00:00,264.0314,0.9,14.48,47.84626,-54.09684
2021-02-19 14:09:01+00:00,269.2548,0.98,14.48,47.84626,-54.09684
2021-02-19 14:19:01+00:00,275.1097,1.04,14.56,47.84626,-54.09684
2021-02-19 14:29:01+00:00,282.0247,1.1,14.56,47.84626,-54.09684
2021-02-19 14:39:01+00:00,283.9731,1.11,14.56,47.84626,-54.09684
2021-02-19 14:49:01+00:00,283.0564,1.1,14.56,47.84626,-54.09684
2021-02-19 14:59:01+00:00,289.1864,1.09,14.56,47.84626,-54.09684
2021-02-19 15:09:01+00:00,291.8514,1.17,14.56,47.84626,-54.09684
2021-02-19 15:19:01+00:00,290.4897,1.46,14.72,47.84626,-54.09684
2021-02-19 15:29:01+00:00,290.7964,1.6,14.72,47.84626,-54.09684
2021-02-19 15:39:01+00:00,294.7914,1.6,14.72,47.84626,-54.09684
2021-02-19 15:49:01+00:00,291.9114,1.65,14.72,47.84626,-54.09684
2021-02-19 15:59:01+00:00,287.838,1.7,14.72,47.84626,-54.09684
2021-02-19 16:09:01+00:00,293.973,1.7,14.72,47.84626,-54.09684
2021-02-19 16:19:01+00:00,296.9414,1.7,14.56,47.84626,-54.09684
2021-02-19 16:29:01+00:00,294.0597,1.75,14.56,47.84626,-54.09684
2021-02-19 16:39:01+00:00,294.9697,1.79,14.56,47.84626,-54.09684
2021-02-19 16:49:01+00:00,296.7163,1.79,14.56,47.84626,-54.09684
2021-02-19 16:59:01+00:00,296.4797,1.79,14.56,47.84626,-54.09684
2021-02-19 17:09:01+00:00,295.183,1.8,14.56,47.84626,-54.09684
2021-02-19 17:19:01+00:00,297.008,1.8,14.48,47.84626,-54.09684
2021-02-19 17:29:01+00:00,295.9714,1.81,14.48,47.84626,-54.09684
2021-02-19 17:39:01+00:00,293.4163,1.9,14.48,47.84626,-54.09684
2021-02-19 17:49:01+00:00,293.3597,1.9,14.48,47.84626,-54.09684
2021-02-19 17:59:01+00:00,285.818,1.9,14.48,47.84626,-54.09684
2021-02-19 18:09:01+00:00,280.2498,1.9,14.48,47.84626,-54.09684
2021-02-19 18:19:01+00:00,279.5364,1.9,14.48,47.84626,-54.09684
2021-02-19 18:29:01+00:00,282.64799999999997,1.94,14.48,47.84626,-54.09684
2021-02-19 18:39:01+00:00,277.9514,1.96,14.48,47.84626,-54.09684
2021-02-19 18:49:01+00:00,274.0664,1.95,14.48,47.84626,-54.09684
2021-02-19 18:59:01+00:00,273.9263,1.96,14.48,47.84626,-54.09684
2021-02-19 19:09:01+00:00,275.6198,1.81,14.48,47.84626,-54.09684
2021-02-19 19:19:01+00:00,269.5648,1.5,14.24,47.84626,-54.09684
2021-02-19 19:29:01+00:00,265.4347,1.64,14.24,47.84626,-54.09684
2021-02-19 19:39:01+00:00,262.2197,1.84,14.24,47.84626,-54.09684
2021-02-19 19:49:01+00:00,260.1931,1.9,14.24,47.84626,-54.09684
2021-02-19 19:59:01+00:00,250.9548,1.97,14.24,47.84626,-54.09684
2021-02-19 20:09:01+00:00,245.5164,1.98,14.24,47.84626,-54.09684
2021-02-19 20:19:01+00:00,246.1481,1.98,13.92,47.84626,-54.09684
2021-02-19 20:29:01+00:00,248.6464,1.96,13.92,47.84626,-54.09684
2021-02-19 20:39:01+00:00,241.9331,1.95,13.92,47.84626,-54.09684
2021-02-19 20:49:01+00:00,233.1031,1.96,13.92,47.84626,-54.09684
2021-02-19 20:59:01+00:00,232.8797,1.95,13.92,47.84626,-54.09684
2021-02-19 21:09:01+00:00,232.1264,1.95,13.92,47.84626,-54.09684
2021-02-19 21:19:01+00:00,227.0697,1.94,13.53,47.84626,-54.09684
2021-02-19 21:29:01+00:00,218.9764,1.95,13.53,47.84626,-54.09684
2021-02-19 21:39:01+00:00,214.8431,1.97,13.53,47.84626,-54.09684
2021-02-19 21:49:01+00:00,213.5831,1.97,13.53,47.84626,-54.09684
2021-02-19 21:59:01+00:00,212.9848,1.98,13.53,47.84626,-54.09684
2021-02-19 22:09:01+00:00,215.4348,1.99,13.53,47.84626,-54.09684
2021-02-19 22:19:01+00:00,217.9531,1.99,13.13,47.84626,-54.09684
2021-02-19 22:29:01+00:00,219.6431,1.99,13.13,47.84626,-54.09684
2021-02-19 22:39:01+00:00,223.3615,1.97,13.13,47.84626,-54.09684
2021-02-19 22:49:01+00:00,225.9748,1.96,13.13,47.84626,-54.09684
2021-02-19 22:59:01+00:00,231.7747,1.94,13.13,47.84626,-54.09684
2021-02-19 23:09:01+00:00,232.0664,1.95,13.13,47.84626,-54.09684
2021-02-19 23:19:01+00:00,227.1381,1.93,12.81,47.84626,-54.09684
2021-02-19 23:29:01+00:00,227.3781,1.9,12.81,47.84626,-54.09684
2021-02-19 23:39:01+00:00,236.4297,1.9,12.81,47.84626,-54.09684
2021-02-19 23:49:01+00:00,237.2947,1.9,12.81,47.84626,-54.09684
2021-02-19 23:59:01+00:00,236.2548,1.9,12.81,47.84626,-54.09684
